KRH648 LFML-EGLF

Flight info

Callsign KRH648
Flight time 1h 32m
Altitude 34000
Route ETREK DCT MADOT DCT MOPEM DCT CACHI DCT AVLON DCT OKRIX/N0452F360 DCT BRY DCT CLM DCT KOPOR DCT SOSUN DCT SUBIP UM8 ELDAX
Aircraft A21N/M-SDE2E3FGHIRWXY/LB1

Departure

Time 2026-04-20 18:17
Airport Marseille Provence Airport (LFML)

Arrival

Time 2026-04-20 19:50
Airport Farnborough Airport (EGLF)
Time Latitude Longitude Altitude Speed Heading
2026-04-20 17:17 43.44440 5.21459 27 ft 0 kts 31°
2026-04-20 18:10 43.44441 5.21461 24 ft 2 kts 41°
2026-04-20 18:11 43.44439 5.21476 24 ft 2 kts 136°
2026-04-20 18:11 43.44418 5.21460 24 ft 5 kts 227°
2026-04-20 18:11 43.44386 5.21417 24 ft 8 kts 212°
2026-04-20 18:11 43.44331 5.21416 27 ft 0 kts 167°
2026-04-20 18:12 43.44323 5.21417 28 ft 4 kts 178°
2026-04-20 18:12 43.44287 5.21385 31 ft 9 kts 240°
2026-04-20 18:12 43.44247 5.21292 33 ft 13 kts 240°
2026-04-20 18:12 43.44198 5.21180 31 ft 14 kts 225°
2026-04-20 18:13 43.44106 5.21217 30 ft 18 kts 131°
2026-04-20 18:13 43.44016 5.21355 32 ft 21 kts 139°
2026-04-20 18:13 43.43919 5.21514 35 ft 24 kts 88°
2026-04-20 18:13 43.43981 5.21682 47 ft 17 kts 107°
2026-04-20 18:14 43.43902 5.21813 49 ft 20 kts 133°
2026-04-20 18:14 43.43803 5.21959 51 ft 22 kts 135°
2026-04-20 18:14 43.43671 5.22088 55 ft 25 kts 152°
2026-04-20 18:14 43.43515 5.22207 54 ft 25 kts 150°
2026-04-20 18:15 43.43370 5.22301 52 ft 23 kts 162°
2026-04-20 18:15 43.43250 5.22449 55 ft 21 kts 132°
2026-04-20 18:15 43.43125 5.22494 59 ft 21 kts 198°
2026-04-20 18:15 43.43062 5.22374 65 ft 17 kts 301°
2026-04-20 18:16 43.43074 5.22352 62 ft 0 kts 314°
2026-04-20 18:17 43.43328 5.21987 52 ft 95 kts 312°
2026-04-20 18:17 43.43956 5.21099 83 ft 155 kts 313°
2026-04-20 18:17 43.44464 5.20429 631 ft 145 kts 312°
2026-04-20 18:17 43.45162 5.19423 1295 ft 151 kts 310°
2026-04-20 18:18 43.45927 5.18253 1688 ft 183 kts 313°
2026-04-20 18:18 43.46899 5.16898 2154 ft 217 kts 315°
2026-04-20 18:18 43.48020 5.15303 2767 ft 242 kts 314°
2026-04-20 18:18 43.49210 5.13594 3728 ft 251 kts 314°
2026-04-20 18:19 43.50434 5.11837 4777 ft 256 kts 313°
2026-04-20 18:19 43.51678 5.10048 5797 ft 261 kts 313°
2026-04-20 18:19 43.52942 5.08236 6849 ft 264 kts 313°
2026-04-20 18:19 43.54241 5.06423 7862 ft 268 kts 319°
2026-04-20 18:20 43.55833 5.05049 8927 ft 272 kts 331°
2026-04-20 18:20 43.57550 5.03881 9985 ft 276 kts 331°
2026-04-20 18:20 43.59348 5.02668 10511 ft 300 kts 331°
2026-04-20 18:20 43.61306 5.01339 10831 ft 326 kts 331°
2026-04-20 18:21 43.63385 4.99911 11154 ft 350 kts 331°
2026-04-20 18:21 43.65632 4.98347 11459 ft 372 kts 331°
2026-04-20 18:21 43.67993 4.96698 11873 ft 386 kts 330°
2026-04-20 18:21 43.70405 4.95011 12513 ft 391 kts 331°
2026-04-20 18:22 43.72851 4.93310 13233 ft 395 kts 331°
2026-04-20 18:22 43.75317 4.91603 13915 ft 399 kts 331°
2026-04-20 18:22 43.77801 4.89851 14510 ft 401 kts 330°
2026-04-20 18:22 43.80300 4.88085 15165 ft 404 kts 330°
2026-04-20 18:23 43.82810 4.86312 15805 ft 407 kts 330°
2026-04-20 18:23 43.85342 4.84538 16384 ft 409 kts 331°
2026-04-20 18:23 43.87891 4.82771 16920 ft 411 kts 331°
2026-04-20 18:23 43.90456 4.80984 17452 ft 413 kts 330°
2026-04-20 18:24 43.93029 4.79167 17996 ft 416 kts 331°
2026-04-20 18:24 43.95621 4.77343 18502 ft 418 kts 330°
2026-04-20 18:24 43.98230 4.75525 18965 ft 421 kts 332°
2026-04-20 18:24 44.00962 4.74146 19451 ft 427 kts 342°
2026-04-20 18:25 44.03867 4.73204 19955 ft 430 kts 345°
2026-04-20 18:25 44.06804 4.72348 20427 ft 433 kts 345°
2026-04-20 18:25 44.09763 4.71474 20942 ft 436 kts 344°
2026-04-20 18:25 44.12735 4.70569 21532 ft 439 kts 344°
2026-04-20 18:26 44.15727 4.69656 22116 ft 441 kts 344°
2026-04-20 18:26 44.18732 4.68727 22629 ft 444 kts 344°
2026-04-20 18:26 44.21765 4.67795 23135 ft 448 kts 343°
2026-04-20 18:26 44.24819 4.66840 23603 ft 451 kts 343°
2026-04-20 18:27 44.27889 4.65882 24020 ft 454 kts 343°
2026-04-20 18:27 44.30977 4.64927 24443 ft 456 kts 343°
2026-04-20 18:27 44.34090 4.63965 24924 ft 456 kts 343°
2026-04-20 18:27 44.37142 4.63016 25458 ft 455 kts 343°
2026-04-20 18:28 44.40230 4.62058 25965 ft 454 kts 343°
2026-04-20 18:28 44.43310 4.61093 26499 ft 453 kts 343°
2026-04-20 18:28 44.46380 4.60139 27052 ft 451 kts 343°
2026-04-20 18:28 44.49449 4.59191 27582 ft 450 kts 342°
2026-04-20 18:29 44.52497 4.58215 28151 ft 449 kts 342°
2026-04-20 18:29 44.55537 4.57269 28692 ft 447 kts 342°
2026-04-20 18:29 44.58571 4.56331 29189 ft 446 kts 343°
2026-04-20 18:29 44.61607 4.55401 29708 ft 445 kts 343°
2026-04-20 18:30 44.64635 4.54476 30202 ft 446 kts 344°
2026-04-20 18:30 44.67742 4.54063 30637 ft 453 kts 355°
2026-04-20 18:30 44.70903 4.54469 31104 ft 457 kts
2026-04-20 18:30 44.74020 4.55096 31291 ft 458 kts
2026-04-20 18:31 44.80316 4.56369 31379 ft 456 kts
2026-04-20 18:31 44.83467 4.56979 31547 ft 457 kts
2026-04-20 18:31 44.86618 4.57590 32003 ft 456 kts
2026-04-20 18:32 44.89755 4.58201 32485 ft 453 kts
2026-04-20 18:32 44.92872 4.58811 32975 ft 451 kts
2026-04-20 18:32 44.95973 4.59415 33413 ft 450 kts
2026-04-20 18:32 44.99070 4.60012 33842 ft 449 kts
2026-04-20 18:33 45.02167 4.60615 34189 ft 448 kts
2026-04-20 18:33 45.05254 4.61226 34507 ft 448 kts
2026-04-20 18:33 45.08346 4.61846 34833 ft 447 kts
2026-04-20 18:33 45.11426 4.62460 35152 ft 446 kts
2026-04-20 18:34 45.14497 4.63067 35428 ft 446 kts
2026-04-20 18:34 45.17537 4.63596 35674 ft 442 kts 357°
2026-04-20 18:34 45.20576 4.63510 35892 ft 433 kts 347°
2026-04-20 18:34 45.23556 4.62893 36046 ft 432 kts 345°
2026-04-20 18:35 45.29490 4.61485 36074 ft 433 kts 345°
2026-04-20 18:35 45.35414 4.60112 36036 ft 431 kts 345°
2026-04-20 18:36 45.41333 4.58740 36031 ft 431 kts 345°
2026-04-20 18:36 45.47245 4.57375 36030 ft 431 kts 345°
2026-04-20 18:37 45.53162 4.55994 36032 ft 430 kts 345°
2026-04-20 18:37 45.59072 4.54633 36028 ft 430 kts 345°
2026-04-20 18:38 45.64984 4.53271 36032 ft 430 kts 345°
2026-04-20 18:38 45.70859 4.51912 36068 ft 430 kts 345°
2026-04-20 18:39 45.76811 4.50542 36056 ft 430 kts 345°
2026-04-20 18:39 45.82687 4.49190 36049 ft 430 kts 345°
2026-04-20 18:40 45.88599 4.47809 36078 ft 430 kts 345°
2026-04-20 18:40 45.94503 4.46409 36053 ft 430 kts 345°
2026-04-20 18:41 46.00414 4.45033 36046 ft 431 kts 345°
2026-04-20 18:41 46.06326 4.43655 36043 ft 430 kts 345°
2026-04-20 18:42 46.12254 4.42245 36055 ft 431 kts 345°
2026-04-20 18:42 46.18131 4.40862 36043 ft 431 kts 345°
2026-04-20 18:43 46.24058 4.39451 36040 ft 431 kts 345°
2026-04-20 18:43 46.29948 4.37907 36055 ft 428 kts 341°
2026-04-20 18:44 46.35734 4.35861 36038 ft 428 kts 340°
2026-04-20 18:44 46.41525 4.33820 36031 ft 428 kts 341°
2026-04-20 18:45 46.47321 4.31776 36031 ft 428 kts 341°
2026-04-20 18:45 46.53073 4.29751 36037 ft 428 kts 341°
2026-04-20 18:46 46.58893 4.27677 36037 ft 428 kts 340°
2026-04-20 18:46 46.64675 4.25610 36038 ft 428 kts 341°
2026-04-20 18:47 46.70443 4.23599 36040 ft 428 kts 341°
2026-04-20 18:47 46.76238 4.21592 36046 ft 428 kts 341°
2026-04-20 18:48 46.82035 4.19540 36047 ft 428 kts 341°
2026-04-20 18:48 46.87823 4.17476 36046 ft 428 kts 341°
2026-04-20 18:49 46.93600 4.15400 36056 ft 427 kts 340°
2026-04-20 18:49 46.99366 4.13313 36052 ft 426 kts 340°
2026-04-20 18:50 47.05124 4.11223 36050 ft 426 kts 340°
2026-04-20 18:50 47.10634 4.08357 36059 ft 422 kts 333°
2026-04-20 18:51 47.16107 4.05108 36070 ft 422 kts 333°
2026-04-20 18:51 47.21521 4.01884 36071 ft 421 kts 333°
2026-04-20 18:52 47.26959 3.98659 36073 ft 422 kts 333°
2026-04-20 18:52 47.32413 3.95425 36105 ft 421 kts 333°
2026-04-20 18:53 47.37833 3.92202 36088 ft 419 kts 333°
2026-04-20 18:53 47.43198 3.88992 36089 ft 419 kts 333°
2026-04-20 18:54 47.48615 3.85759 36085 ft 419 kts 333°
2026-04-20 18:54 47.54016 3.82523 36115 ft 420 kts 333°
2026-04-20 18:55 47.59448 3.79262 36103 ft 421 kts 333°
2026-04-20 18:55 47.64880 3.75988 36096 ft 421 kts 333°
2026-04-20 18:56 47.70313 3.72710 36098 ft 421 kts 333°
2026-04-20 18:56 47.75745 3.69426 36120 ft 423 kts 333°
2026-04-20 18:57 47.81217 3.66115 36108 ft 425 kts 333°
2026-04-20 18:57 47.86661 3.62812 36112 ft 425 kts 333°
2026-04-20 18:58 47.92140 3.59480 36110 ft 425 kts 333°
2026-04-20 18:58 47.97616 3.56131 36132 ft 425 kts 334°
2026-04-20 18:59 48.03094 3.52776 36126 ft 426 kts 334°
2026-04-20 18:59 48.08576 3.49394 36123 ft 426 kts 333°
2026-04-20 19:00 48.14054 3.46016 36126 ft 426 kts 334°
2026-04-20 19:00 48.19494 3.42661 36147 ft 425 kts 334°
2026-04-20 19:01 48.24960 3.39279 36123 ft 425 kts 334°
2026-04-20 19:01 48.30439 3.35874 36128 ft 425 kts 333°
2026-04-20 19:02 48.35912 3.32463 36127 ft 425 kts 334°
2026-04-20 19:02 48.41380 3.29055 36157 ft 423 kts 334°
2026-04-20 19:03 48.46761 3.25627 36141 ft 422 kts 333°
2026-04-20 19:03 48.52172 3.22159 36140 ft 422 kts 333°
2026-04-20 19:04 48.57585 3.18696 36150 ft 422 kts 333°
2026-04-20 19:04 48.62982 3.15206 36161 ft 421 kts 333°
2026-04-20 19:05 48.68372 3.11736 36151 ft 421 kts 333°
2026-04-20 19:05 48.73773 3.08277 36156 ft 421 kts 333°
2026-04-20 19:06 48.78257 3.05399 36148 ft 421 kts 333°
2026-04-20 19:06 48.84510 3.01277 36157 ft 420 kts 329°
2026-04-20 19:07 48.88771 2.97627 36168 ft 419 kts 327°
2026-04-20 19:07 48.93795 2.93228 36172 ft 419 kts 327°
2026-04-20 19:08 49.01378 2.86591 36169 ft 419 kts 327°
2026-04-20 19:09 49.06436 2.82134 36196 ft 419 kts 327°
2026-04-20 19:09 49.11482 2.77694 36175 ft 418 kts 327°
2026-04-20 19:10 49.16516 2.73240 36174 ft 418 kts 327°
2026-04-20 19:10 49.21560 2.68791 36178 ft 418 kts 327°
2026-04-20 19:11 49.26560 2.64351 36180 ft 418 kts 327°
2026-04-20 19:11 49.31588 2.59871 36191 ft 418 kts 327°
2026-04-20 19:12 49.36605 2.55351 36197 ft 418 kts 327°
2026-04-20 19:12 49.41625 2.50845 36199 ft 418 kts 327°
2026-04-20 19:13 49.46642 2.46333 36197 ft 418 kts 327°
2026-04-20 19:13 49.51484 2.41447 36219 ft 415 kts 316°
2026-04-20 19:14 49.55276 2.34822 36206 ft 413 kts 308°
2026-04-20 19:14 49.58877 2.27935 36203 ft 413 kts 308°
2026-04-20 19:15 49.62506 2.21053 36198 ft 413 kts 308°
2026-04-20 19:15 49.66127 2.14179 36205 ft 413 kts 308°
2026-04-20 19:16 49.69737 2.07271 36213 ft 413 kts 308°
2026-04-20 19:16 49.73360 2.00359 36235 ft 414 kts 308°
2026-04-20 19:17 49.76957 1.93475 36222 ft 413 kts 308°
2026-04-20 19:17 49.80555 1.86525 36228 ft 413 kts 308°
2026-04-20 19:18 49.84151 1.79573 36222 ft 413 kts 308°
2026-04-20 19:18 49.87742 1.72608 36230 ft 413 kts 308°
2026-04-20 19:19 49.91329 1.65635 36232 ft 413 kts 308°
2026-04-20 19:19 49.94919 1.58655 36231 ft 414 kts 308°
2026-04-20 19:20 49.98563 1.51744 36224 ft 411 kts 312°
2026-04-20 19:20 50.00615 1.48755 35875 ft 410 kts 316°
2026-04-20 19:20 50.02773 1.45831 35605 ft 410 kts 317°
2026-04-20 19:20 50.04929 1.42927 35353 ft 409 kts 316°
2026-04-20 19:21 50.07070 1.40026 35025 ft 406 kts 316°
2026-04-20 19:21 50.09199 1.37152 34395 ft 403 kts 316°
2026-04-20 19:21 50.11277 1.34232 33643 ft 401 kts 311°
2026-04-20 19:21 50.12962 1.30792 33256 ft 400 kts 300°
2026-04-20 19:22 50.14174 1.26897 32952 ft 400 kts 293°
2026-04-20 19:22 50.15250 1.22896 32679 ft 400 kts 293°
2026-04-20 19:22 50.16325 1.18896 32432 ft 400 kts 293°
2026-04-20 19:22 50.17400 1.14899 32171 ft 400 kts 293°
2026-04-20 19:23 50.18478 1.10903 31910 ft 400 kts 293°
2026-04-20 19:23 50.19555 1.06918 31689 ft 397 kts 293°
2026-04-20 19:23 50.20613 1.03002 31438 ft 397 kts 293°
2026-04-20 19:23 50.21697 0.98990 31186 ft 396 kts 293°
2026-04-20 19:24 50.22769 0.95025 30938 ft 396 kts 293°
2026-04-20 19:24 50.23823 0.91115 30524 ft 393 kts 292°
2026-04-20 19:24 50.24880 0.87188 29680 ft 392 kts 292°
2026-04-20 19:24 50.25943 0.83228 28884 ft 400 kts 292°
2026-04-20 19:25 50.27026 0.79185 28460 ft 403 kts 292°
2026-04-20 19:25 50.28097 0.75199 27555 ft 397 kts 292°
2026-04-20 19:25 50.29170 0.71175 26291 ft 403 kts 292°
2026-04-20 19:25 50.30250 0.67125 25366 ft 403 kts 292°
2026-04-20 19:26 50.31308 0.63153 24772 ft 396 kts 292°
2026-04-20 19:26 50.32371 0.59141 24256 ft 399 kts 292°
2026-04-20 19:26 50.33422 0.55170 23668 ft 392 kts 292°
2026-04-20 19:26 50.34500 0.51111 23178 ft 412 kts 292°
2026-04-20 19:27 50.35594 0.46950 22848 ft 413 kts 292°
2026-04-20 19:27 50.36702 0.42777 22534 ft 415 kts 292°
2026-04-20 19:27 50.37805 0.38603 22263 ft 414 kts 292°
2026-04-20 19:27 50.38899 0.34431 21995 ft 413 kts 292°
2026-04-20 19:28 50.39990 0.30273 21725 ft 412 kts 292°
2026-04-20 19:28 50.41077 0.26113 21462 ft 411 kts 292°
2026-04-20 19:28 50.42163 0.21969 21230 ft 410 kts 293°
2026-04-20 19:28 50.43234 0.17855 20967 ft 407 kts 293°
2026-04-20 19:29 50.44311 0.13747 20704 ft 406 kts 293°
2026-04-20 19:29 50.45379 0.09653 20455 ft 405 kts 293°
2026-04-20 19:29 50.46445 0.05561 20208 ft 404 kts 293°
2026-04-20 19:29 50.47503 0.01474 19954 ft 403 kts 293°
2026-04-20 19:30 50.48556 -0.02607 19698 ft 404 kts 292°
2026-04-20 19:30 50.49590 -0.06643 19455 ft 403 kts 293°
2026-04-20 19:30 50.50646 -0.10730 19209 ft 403 kts 293°
2026-04-20 19:30 50.51696 -0.14806 18972 ft 402 kts 293°
2026-04-20 19:31 50.52743 -0.18874 18730 ft 401 kts 293°
2026-04-20 19:31 50.53788 -0.22929 18486 ft 400 kts 293°
2026-04-20 19:31 50.54827 -0.26994 18209 ft 400 kts 293°
2026-04-20 19:31 50.55863 -0.31049 17937 ft 399 kts 293°
2026-04-20 19:32 50.56902 -0.35102 17672 ft 398 kts 293°
2026-04-20 19:32 50.57965 -0.39127 17395 ft 397 kts 296°
2026-04-20 19:32 50.59386 -0.42840 17127 ft 396 kts 307°
2026-04-20 19:32 50.61230 -0.46056 16881 ft 396 kts 314°
2026-04-20 19:33 50.63186 -0.49119 16612 ft 395 kts 315°
2026-04-20 19:33 50.65138 -0.52157 16368 ft 395 kts 315°
2026-04-20 19:33 50.67086 -0.55218 16115 ft 396 kts 314°
2026-04-20 19:33 50.69159 -0.58060 15850 ft 396 kts 323°
2026-04-20 19:34 50.71504 -0.60255 15595 ft 396 kts 330°
2026-04-20 19:34 50.73932 -0.62298 15267 ft 393 kts 330°
2026-04-20 19:34 50.76322 -0.64297 14840 ft 384 kts 331°
2026-04-20 19:34 50.78660 -0.66260 14422 ft 378 kts 331°
2026-04-20 19:35 50.81000 -0.68239 14031 ft 379 kts 331°
2026-04-20 19:35 50.83351 -0.70234 13626 ft 381 kts 331°
2026-04-20 19:35 50.85677 -0.72190 13036 ft 375 kts 333°
2026-04-20 19:35 50.88122 -0.73665 12560 ft 382 kts 342°
2026-04-20 19:36 50.90620 -0.74873 12159 ft 368 kts 342°
2026-04-20 19:36 50.93031 -0.76022 11700 ft 358 kts 343°
2026-04-20 19:36 50.95416 -0.77157 11136 ft 359 kts 343°
2026-04-20 19:36 50.97801 -0.78302 10818 ft 357 kts 343°
2026-04-20 19:37 51.00166 -0.79424 10465 ft 349 kts 345°
2026-04-20 19:37 51.02570 -0.79777 9644 ft 349 kts
2026-04-20 19:37 51.04943 -0.79276 8908 ft 348 kts
2026-04-20 19:37 51.07323 -0.78663 8234 ft 344 kts
2026-04-20 19:38 51.09665 -0.77997 7585 ft 340 kts 11°
2026-04-20 19:38 51.11980 -0.77251 6960 ft 337 kts 11°
2026-04-20 19:38 51.14251 -0.76468 6431 ft 331 kts 15°
2026-04-20 19:38 51.16459 -0.75436 5962 ft 329 kts 19°
2026-04-20 19:39 51.18439 -0.73688 5534 ft 324 kts 40°
2026-04-20 19:39 51.19813 -0.70943 5249 ft 312 kts 57°
2026-04-20 19:39 51.20904 -0.68053 5090 ft 296 kts 58°
2026-04-20 19:39 51.21947 -0.65352 4952 ft 273 kts 57°
2026-04-20 19:40 51.22916 -0.62921 4865 ft 247 kts 56°
2026-04-20 19:40 51.23812 -0.60719 4819 ft 226 kts 55°
2026-04-20 19:40 51.24846 -0.58976 4764 ft 210 kts 33°
2026-04-20 19:40 51.26190 -0.58173 4654 ft 208 kts
2026-04-20 19:41 51.27632 -0.58353 4526 ft 211 kts 346°
2026-04-20 19:41 51.28930 -0.59465 4403 ft 216 kts 322°
2026-04-20 19:41 51.29841 -0.61398 4302 ft 223 kts 297°
2026-04-20 19:41 51.30175 -0.63837 4265 ft 229 kts 273°
2026-04-20 19:42 51.30066 -0.66388 4148 ft 231 kts 267°
2026-04-20 19:42 51.29918 -0.68936 3937 ft 230 kts 268°
2026-04-20 19:42 51.29787 -0.71485 3697 ft 230 kts 268°
2026-04-20 19:42 51.29672 -0.74001 3509 ft 230 kts 269°
2026-04-20 19:43 51.29567 -0.76550 3361 ft 230 kts 269°
2026-04-20 19:43 51.29467 -0.79105 3221 ft 231 kts 269°
2026-04-20 19:43 51.29368 -0.81652 3093 ft 230 kts 269°
2026-04-20 19:43 51.29265 -0.84207 2976 ft 230 kts 269°
2026-04-20 19:44 51.29160 -0.86758 2884 ft 230 kts 269°
2026-04-20 19:44 51.29055 -0.89305 2807 ft 230 kts 269°
2026-04-20 19:44 51.28950 -0.91857 2732 ft 230 kts 268°
2026-04-20 19:44 51.28843 -0.94399 2663 ft 229 kts 269°
2026-04-20 19:45 51.28735 -0.96947 2588 ft 230 kts 266°
2026-04-20 19:45 51.28250 -0.99299 2489 ft 222 kts 234°
2026-04-20 19:45 51.27111 -1.00885 2472 ft 217 kts 201°
2026-04-20 19:45 51.25663 -1.01342 2482 ft 211 kts 172°
2026-04-20 19:46 51.24301 -1.00919 2487 ft 186 kts 150°
2026-04-20 19:46 51.23377 -0.99631 2526 ft 174 kts 115°
2026-04-20 19:46 51.23091 -0.97823 2526 ft 168 kts 94°
2026-04-20 19:46 51.22919 -0.95976 2517 ft 167 kts 96°
2026-04-20 19:47 51.22741 -0.94238 2492 ft 153 kts 95°
2026-04-20 19:47 51.22748 -0.92584 2483 ft 148 kts 73°
2026-04-20 19:47 51.23120 -0.91060 2364 ft 147 kts 64°
2026-04-20 19:47 51.23579 -0.89643 2152 ft 145 kts 62°
2026-04-20 19:48 51.24043 -0.88242 1913 ft 139 kts 62°
2026-04-20 19:48 51.24468 -0.86968 1695 ft 118 kts 62°
2026-04-20 19:48 51.24845 -0.85837 1501 ft 118 kts 62°
2026-04-20 19:48 51.25231 -0.84676 1319 ft 118 kts 62°
2026-04-20 19:49 51.25618 -0.83514 1110 ft 119 kts 62°
2026-04-20 19:49 51.26008 -0.82344 917 ft 120 kts 62°
2026-04-20 19:49 51.26397 -0.81172 709 ft 120 kts 60°
2026-04-20 19:49 51.26791 -0.79994 520 ft 120 kts 60°
2026-04-20 19:50 51.27181 -0.78828 321 ft 120 kts 59°
2026-04-20 19:50 51.27566 -0.77684 236 ft 103 kts 62°
2026-04-20 19:50 51.27754 -0.77117 232 ft 29 kts 62°
2026-04-20 19:50 51.27828 -0.77003 234 ft 16 kts 32°
2026-04-20 19:51 51.27924 -0.76899 234 ft 13 kts 34°
2026-04-20 19:51 51.28007 -0.76812 236 ft 14 kts 33°
2026-04-20 19:51 51.28060 -0.76810 237 ft 9 kts 304°
2026-04-20 19:51 51.28082 -0.76918 232 ft 11 kts 286°
2026-04-20 19:52 51.28107 -0.77045 231 ft 13 kts 288°
2026-04-20 19:52 51.28133 -0.77171 229 ft 11 kts 288°
2026-04-20 19:52 51.28153 -0.77279 227 ft 10 kts 286°
2026-04-20 19:52 51.28177 -0.77396 226 ft 12 kts 288°
2026-04-20 19:53 51.28204 -0.77529 224 ft 11 kts 288°
2026-04-20 19:53 51.28220 -0.77626 227 ft 8 kts 269°
2026-04-20 19:53 51.28178 -0.77711 228 ft 12 kts 223°
2026-04-20 19:53 51.28179 -0.77788 230 ft 7 kts 341°
2026-04-20 19:54 51.28220 -0.77747 229 ft 5 kts 39°
2026-04-20 19:54 51.28224 -0.77742 229 ft 0 kts 40°